P/2022 O2 ( PanSTARRS )

Japanese version
Home page
Updated on November 13, 2022

---------------------------------------------------------------------

* Profile

Discovery Date August 17, 2022
Magnitude 20.3 mag
Discoverer Pan-STARRS 2 telescope (Haleakala)

* Pictures

* Orbital Elements

Epoch 2022 Aug. 9.0 TT = JDT 2459800.5
T 2023 Jan. 7.13393 TT                                  Rudenko
q   1.7566973            (2000.0)            P               Q
n   0.06217861     Peri.   48.65368     +0.93965288     -0.33248806
a   6.3101844      Node   330.49955     +0.24401999     +0.81653530
e   0.7216092      Incl.    9.42615     +0.23980558     +0.47193409
P  15.9
>From 53 observations 2022 July 5-Oct. 26, mean residual 0".3.

* Magnitudes Graph

        m1 = 16.0 + 5 log d + 10.0 log r

---------------------------------------------------------------------

The orbital elements are published on M.P.E.C. 2022-V125.
The magnitudes graphs are made with Comet for Windows.

---------------------------------------------------------------------

Copyright(C) Seiichi Yoshida (comet@aerith.net). All rights reserved.